| time (UTC) | temp F | wind direction | speed MPH | gust MPH | rain 1hr in | rain 24hr in | rain mn in | humidity % | barometer mb |
| 20260906093055 | 72 | 197 | 0.0 | 2.0 | 0.00 | 0.02 | 0.00 | 91 | 1014.0 |
| 20260906091606 | 72 | 193 | 0.0 | 1.0 | 0.00 | 0.02 | 0.00 | 90 | 1013.9 |
| 20260906084606 | 72 | 0 | 0.0 | 0.0 | 0.00 | 0.02 | 0.00 | 90 | 1013.9 |
| 20260906083052 | 72 | 0 | 0.0 | 1.0 | 0.00 | 0.02 | 0.00 | 90 | 1013.8 |
| 20260906081553 | 72 | 0 | 0.0 | 0.0 | 0.00 | 0.02 | 0.00 | 90 | 1013.7 |
| 20260906074556 | 73 | 0 | 0.0 | 0.0 | 0.00 | 0.02 | 0.00 | 90 | 1013.9 |
| 20260906073054 | 73 | 0 | 0.0 | 0.0 | 0.00 | 0.02 | 0.00 | 89 | 1013.8 |
| 20260906071551 | 74 | 0 | 0.0 | 0.0 | 0.00 | 0.02 | 0.00 | 89 | 1013.7 |
| 20260906070050 | 74 | 0 | 0.0 | 2.0 | 0.00 | 0.02 | 0.00 | 89 | 1013.8 |
| 20260906064601 | 74 | 198 | 0.0 | 2.0 | 0.00 | 0.02 | 0.00 | 89 | 1013.8 |
| 20260906063059 | 74 | 0 | 0.0 | 0.0 | 0.00 | 0.02 | 0.00 | 90 | 1013.9 |
| 20260906061603 | 74 | 0 | 0.0 | 0.0 | 0.00 | 0.02 | 0.00 | 89 | 1014.1 |
| 20260906054554 | 75 | 0 | 0.0 | 1.0 | 0.00 | 0.02 | 0.00 | 89 | 1014.1 |
| 20260906053110 | 75 | 198 | 0.0 | 1.0 | 0.00 | 0.02 | 0.00 | 89 | 1014.1 |
| 20260906051604 | 75 | 0 | 0.0 | 0.0 | 0.00 | 0.02 | 0.00 | 88 | 1014.1 |
| 20260906050101 | 76 | 0 | 0.0 | 0.0 | 0.00 | 0.02 | 0.00 | 88 | 1014.0 |
| 20260906044602 | 76 | 0 | 0.0 | 0.0 | 0.00 | 0.02 | 0.00 | 87 | 1014.0 |
| 20260906043106 | 77 | 0 | 0.0 | 0.0 | 0.00 | 0.02 | 0.00 | 85 | 1013.7 |
| 20260906041603 | 78 | 0 | 0.0 | 0.0 | 0.00 | 0.02 | 0.00 | 85 | 1013.5 |
| 20260906040117 | 78 | 0 | 0.0 | 1.0 | 0.00 | 0.02 | 0.00 | 84 | 1013.6 |
| 20260906034555 | 79 | 203 | 0.0 | 2.0 | 0.00 | 0.02 | 0.02 | 84 | 1013.5 |
| 20260906033107 | 79 | 191 | 0.0 | 0.0 | 0.00 | 0.02 | 0.02 | 84 | 1013.4 |
| 20260906031559 | 79 | 0 | 0.0 | 0.0 | 0.00 | 0.02 | 0.02 | 85 | 1013.4 |
| 20260906030055 | 77 | 0 | 0.0 | 1.0 | 0.00 | 0.02 | 0.02 | 86 | 1013.4 |
| 20260906024556 | 78 | 0 | 0.0 | 0.0 | 0.00 | 0.02 | 0.02 | 86 | 1013.1 |
| 20260906023054 | 78 | 0 | 0.0 | 0.0 | 0.00 | 0.02 | 0.02 | 85 | 1013.2 |
| 20260906021607 | 79 | 0 | 0.0 | 0.0 | 0.00 | 0.02 | 0.02 | 84 | 1013.2 |
| 20260906020105 | 79 | 0 | 0.0 | 0.0 | 0.00 | 0.02 | 0.02 | 83 | 1013.0 |
| 20260906014602 | 80 | 0 | 0.0 | 0.0 | 0.00 | 0.02 | 0.02 | 83 | 1013.0 |
| 20260906013107 | 80 | 0 | 0.0 | 0.0 | 0.00 | 0.02 | 0.02 | 85 | 1012.9 |
| 20260906011605 | 80 | 0 | 0.0 | 0.0 | 0.00 | 0.02 | 0.02 | 84 | 1012.6 |
| 20260906010058 | 81 | 0 | 0.0 | 0.0 | 0.00 | 0.02 | 0.02 | 84 | 1012.3 |
| 20260906004609 | 81 | 0 | 0.0 | 0.0 | 0.00 | 0.02 | 0.02 | 85 | 1012.5 |
| 20260906003102 | 82 | 0 | 0.0 | 0.0 | 0.00 | 0.02 | 0.02 | 85 | 1012.3 |
| 20260906001553 | 83 | 0 | 0.0 | 0.0 | 0.00 | 0.02 | 0.02 | 82 | 1012.3 |
| 20260906000107 | 84 | 0 | 0.0 | 0.0 | 0.00 | 0.02 | 0.02 | 79 | 1012.5 |
| 20260905234550 | 85 | 0 | 0.0 | 0.0 | 0.00 | 0.02 | 0.02 | 76 | 1012.7 |
| 20260905233056 | 86 | 0 | 0.0 | 0.0 | 0.00 | 0.02 | 0.02 | 77 | 1012.9 |
| 20260905231553 | 87 | 0 | 0.0 | 2.0 | 0.00 | 0.02 | 0.02 | 74 | 1012.9 |
| 20260905230055 | 86 | 0 | 0.0 | 0.0 | 0.00 | 0.02 | 0.02 | 76 | 1012.5 |
| 20260905224555 | 87 | 0 | 0.0 | 0.0 | 0.00 | 0.02 | 0.02 | 74 | 1012.7 |
| 20260905223052 | 87 | 0 | 0.0 | 0.0 | 0.00 | 0.02 | 0.02 | 71 | 1012.3 |
| 20260905221552 | 88 | 0 | 0.0 | 0.0 | 0.00 | 0.02 | 0.02 | 69 | 1012.5 |
| 20260905220100 | 89 | 0 | 0.0 | 1.0 | 0.00 | 0.02 | 0.02 | 69 | 1012.3 |
| 20260905214552 | 89 | 132 | 0.0 | 1.0 | 0.00 | 0.02 | 0.02 | 68 | 1012.3 |
| 20260905213052 | 89 | 0 | 0.0 | 0.0 | 0.00 | 0.02 | 0.02 | 68 | 1012.5 |
| 20260905211553 | 89 | 0 | 0.0 | 0.0 | 0.00 | 0.02 | 0.02 | 69 | 1012.5 |
| 20260905210115 | 89 | 0 | 0.0 | 1.0 | 0.00 | 0.02 | 0.02 | 65 | 1012.6 |
| 20260905204558 | 89 | 0 | 0.0 | 2.0 | 0.00 | 0.02 | 0.02 | 64 | 1012.9 |
| 20260905203101 | 89 | 0 | 0.0 | 2.0 | 0.00 | 0.02 | 0.02 | 64 | 1012.9 |
| 20260905201600 | 90 | 0 | 0.0 | 1.0 | 0.00 | 0.02 | 0.02 | 65 | 1013.2 |
| 20260905200117 | 91 | 128 | 0.0 | 1.0 | 0.00 | 0.02 | 0.02 | 63 | 1013.4 |
| 20260905194607 | 92 | 0 | 0.0 | 1.0 | 0.00 | 0.02 | 0.02 | 63 | 1013.5 |
| 20260905193050 | 92 | 0 | 0.0 | 2.0 | 0.00 | 0.02 | 0.02 | 59 | 1013.8 |
| 20260905191603 | 93 | 0 | 0.0 | 1.0 | 0.00 | 0.02 | 0.02 | 59 | 1014.1 |
| 20260905190057 | 93 | 160 | 0.0 | 1.0 | 0.00 | 0.02 | 0.02 | 57 | 1014.3 |
| 20260905184624 | 93 | 255 | 0.0 | 2.0 | 0.00 | 0.02 | 0.02 | 58 | 1014.3 |
| 20260905183053 | 93 | 0 | 0.0 | 1.0 | 0.00 | 0.02 | 0.02 | 61 | 1014.4 |
| 20260905181602 | 92 | 136 | 0.0 | 1.0 | 0.00 | 0.02 | 0.02 | 59 | 1014.6 |
| 20260905180057 | 92 | 0 | 1.0 | 4.0 | 0.00 | 0.02 | 0.02 | 59 | 1014.9 |
| 20260905174629 | 92 | 186 | 0.0 | 2.0 | 0.00 | 0.02 | 0.02 | 59 | 1014.9 |
| 20260905173052 | 92 | 250 | 0.0 | 2.0 | 0.00 | 0.02 | 0.02 | 62 | 1015.0 |
| 20260905171550 | 91 | 0 | 0.0 | 3.0 | 0.00 | 0.02 | 0.02 | 57 | 1015.3 |
| 20260905170057 | 91 | 96 | 0.0 | 1.0 | 0.00 | 0.02 | 0.02 | 59 | 1015.6 |
| 20260905164554 | 89 | 269 | 0.0 | 3.0 | 0.00 | 0.02 | 0.02 | 60 | 1015.8 |
| 20260905163053 | 88 | 248 | 0.0 | 3.0 | 0.00 | 0.02 | 0.02 | 60 | 1016.1 |
| 20260905161549 | 87 | 247 | 1.0 | 3.0 | 0.00 | 0.02 | 0.02 | 65 | 1016.0 |
| 20260905160055 | 87 | 272 | 0.0 | 3.0 | 0.00 | 0.02 | 0.02 | 63 | 1015.9 |
| 20260905154612 | 86 | 352 | 1.0 | 3.0 | 0.00 | 0.02 | 0.02 | 67 | 1015.8 |
| 20260905153052 | 84 | 250 | 1.0 | 4.0 | 0.00 | 0.02 | 0.02 | 69 | 1015.8 |
| 20260905151613 | 83 | 260 | 1.0 | 4.0 | 0.00 | 0.02 | 0.02 | 73 | 1015.8 |
| 20260905150056 | 82 | 232 | 0.0 | 4.0 | 0.00 | 0.02 | 0.02 | 75 | 1016.0 |
| 20260905144552 | 82 | 264 | 2.0 | 5.0 | 0.00 | 0.02 | 0.02 | 72 | 1016.1 |
| 20260905143052 | 82 | 237 | 0.0 | 4.0 | 0.00 | 0.02 | 0.02 | 75 | 1016.4 |
| 20260905141557 | 80 | 32 | 0.0 | 4.0 | 0.00 | 0.02 | 0.02 | 76 | 1016.7 |
| 20260905140056 | 78 | 259 | 1.0 | 7.0 | 0.00 | 0.02 | 0.02 | 77 | 1016.6 |
| 20260905134552 | 77 | 298 | 1.0 | 7.0 | 0.00 | 0.02 | 0.02 | 77 | 1016.7 |
| 20260905133057 | 77 | 260 | 3.0 | 7.0 | 0.00 | 0.02 | 0.02 | 79 | 1016.8 |
| 20260905131605 | 76 | 264 | 1.0 | 6.0 | 0.00 | 0.02 | 0.02 | 82 | 1017.2 |
| 20260905130056 | 75 | 0 | 2.0 | 7.0 | 0.00 | 0.02 | 0.02 | 84 | 1017.3 |
| 20260905124553 | 74 | 197 | 2.0 | 6.0 | 0.00 | 0.02 | 0.02 | 87 | 1017.0 |
| 20260905123102 | 75 | 198 | 3.0 | 11.0 | 0.00 | 0.02 | 0.02 | 86 | 1017.0 |
| 20260905121600 | 74 | 199 | 3.0 | 13.0 | 0.00 | 0.02 | 0.02 | 88 | 1016.4 |
| 20260905120054 | 74 | 181 | 0.0 | 2.0 | 0.00 | 0.02 | 0.02 | 91 | 1015.6 |
| 20260905114600 | 74 | 0 | 0.0 | 1.0 | 0.00 | 0.02 | 0.02 | 90 | 1015.7 |
| 20260905113057 | 76 | 41 | 0.0 | 3.0 | 0.02 | 0.02 | 0.02 | 89 | 1016.1 |
| 20260905111641 | 76 | 226 | 0.0 | 2.0 | 0.00 | 0.00 | 0.00 | 87 | 1015.4 |
| 20260905110053 | 77 | 0 | 0.0 | 4.0 | 0.00 | 0.00 | 0.00 | 87 | 1015.7 |
| 20260905104554 | 77 | 0 | 0.0 | 1.0 | 0.00 | 0.00 | 0.00 | 87 | 1015.2 |
| 20260905103058 | 77 | 0 | 0.0 | 1.0 | 0.00 | 0.00 | 0.00 | 88 | 1015.2 |
| 20260905101604 | 77 | 0 | 0.0 | 4.0 | 0.00 | 0.00 | 0.00 | 88 | 1014.6 |
| 20260905100056 | 76 | 206 | 2.0 | 4.0 | 0.00 | 0.00 | 0.00 | 89 | 1014.7 |
| 20260905094553 | 76 | 0 | 0.0 | 0.0 | 0.00 | 0.00 | 0.00 | 90 | 1014.6 |